KB4QOR Weather Reports


Display with metric or nautical units.
time (UTC)temp
F
wind
direction
speed
MPH
gust
MPH
rain 1hr
in
rain 24hr
in
rain mn
in
humidity
%
barometer
mb
20260510081543 58 0 0.0 0.0 0.00 0.00 0.00 72 1012.3
20260510080032 58 0 0.0 0.0 0.00 0.00 0.00 72 1012.2
20260510074528 58 0 0.0 0.0 0.00 0.00 0.00 71 1011.8
20260510073031 59 0 0.0 0.0 0.00 0.00 0.00 71 1011.9
20260510071537 59 0 0.0 0.0 0.00 0.00 0.00 71 1011.8
20260510070037 60 0 0.0 0.0 0.00 0.00 0.00 71 1011.7
20260510064531 60 0 0.0 0.0 0.00 0.00 0.00 71 1011.8
20260510063029 61 0 0.0 0.0 0.00 0.00 0.00 71 1011.9
20260510061530 61 0 0.0 0.0 0.00 0.00 0.00 72 1012.1
20260510060028 61 0 0.0 0.0 0.00 0.00 0.00 72 1012.1
20260510054530 61 0 0.0 0.0 0.00 0.00 0.00 72 1012.0
20260510053028 61 0 0.0 0.0 0.00 0.00 0.00 72 1012.1
20260510051530 62 0 0.0 0.0 0.00 0.00 0.00 72 1012.1
20260510050028 62 0 0.0 0.0 0.00 0.00 0.00 72 1012.0
20260510044534 62 0 0.0 0.0 0.00 0.00 0.00 72 1012.1
20260510043028 62 0 0.0 1.0 0.00 0.00 0.00 72 1012.0
20260510041529 63 0 0.0 0.0 0.00 0.00 0.00 71 1012.1
20260510040032 63 0 0.0 0.0 0.00 0.00 0.00 71 1012.0
20260510034535 63 0 0.0 0.0 0.00 0.00 0.00 71 1012.2
20260510033028 64 0 0.0 0.0 0.00 0.00 0.00 71 1012.2
20260510031531 65 0 0.0 0.0 0.00 0.00 0.00 71 1012.3
20260510030030 65 0 0.0 0.0 0.00 0.00 0.00 71 1012.1
20260510024530 66 0 0.0 0.0 0.00 0.00 0.00 71 1012.1
20260510023029 67 0 0.0 0.0 0.00 0.00 0.00 70 1011.9
20260510021533 67 0 0.0 0.0 0.00 0.00 0.00 69 1011.8
20260510020028 68 0 0.0 0.0 0.00 0.00 0.00 69 1011.3
20260510014529 69 0 0.0 0.0 0.00 0.00 0.00 68 1011.1
20260510013029 70 0 0.0 0.0 0.00 0.00 0.00 68 1010.7
20260510011538 71 0 0.0 1.0 0.00 0.00 0.00 67 1010.3
20260510010029 73 0 0.0 0.0 0.00 0.00 0.00 66 1010.2
20260510004531 74 0 0.0 1.0 0.00 0.00 0.00 65 1010.0
20260510003031 74 0 0.0 1.0 0.00 0.00 0.00 63 1009.9
20260510001532 75 0 0.0 2.0 0.00 0.00 0.00 61 1009.6
20260510000054 76 0 0.0 3.0 0.00 0.00 0.00 60 1009.4
20260509234546 76 289 1.0 6.0 0.00 0.00 0.00 58 1009.4
20260509221532 78 132 2.0 6.0 0.00 0.00 0.00 57 1009.3
20260509220032 78 277 0.0 8.0 0.00 0.00 0.00 58 1009.3
20260509214532 78 79 2.0 7.0 0.00 0.00 0.00 58 1009.4
20260509213028 78 0 0.0 7.0 0.00 0.00 0.00 59 1009.4
20260509211532 78 84 2.0 6.0 0.00 0.00 0.00 58 1009.3
20260509210039 78 98 2.0 7.0 0.00 0.00 0.00 60 1009.4
20260509204535 78 281 3.0 9.0 0.00 0.00 0.00 60 1009.3
20260509203031 77 88 1.0 7.0 0.00 0.00 0.00 62 1009.5
20260509201530 77 82 2.0 8.0 0.00 0.00 0.00 61 1009.6
20260509200035 76 261 2.0 6.0 0.00 0.00 0.00 65 1009.8
20260509194535 75 277 1.0 5.0 0.00 0.00 0.00 64 1009.7
20260509193031 74 84 1.0 7.0 0.00 0.00 0.00 66 1009.9
20260509191530 73 273 3.0 11.0 0.00 0.00 0.00 67 1010.0
20260509190033 73 292 2.0 7.0 0.00 0.00 0.00 66 1010.3
20260509184543 72 0 0.0 4.0 0.00 0.00 0.00 67 1010.3
20260509183033 71 275 0.0 9.0 0.00 0.00 0.00 70 1010.3
20260509181530 70 0 2.0 6.0 0.00 0.00 0.00 71 1010.2
20260509180028 68 86 0.0 6.0 0.00 0.00 0.00 72 1010.4
20260509174534 67 85 1.0 10.0 0.00 0.00 0.00 72 1010.3
20260509173032 66 73 2.0 6.0 0.00 0.00 0.00 72 1010.2
20260509171533 65 284 1.0 6.0 0.00 0.00 0.00 72 1010.4
20260509170030 65 0 0.0 3.0 0.00 0.00 0.00 72 1010.4
20260509164532 64 124 2.0 6.0 0.00 0.00 0.00 72 1010.3
20260509163027 63 271 1.0 6.0 0.00 0.00 0.00 71 1010.2
20260509161532 62 87 1.0 6.0 0.00 0.00 0.00 70 1010.0
20260509160033 62 278 1.0 7.0 0.00 0.00 0.00 70 1010.0
20260509154532 61 257 1.0 8.0 0.00 0.00 0.00 69 1010.0
20260509153040 61 0 1.0 8.0 0.00 0.00 0.00 69 1009.8
20260509151531 60 268 2.0 9.0 0.00 0.00 0.00 69 1009.9
20260509150119 60 269 1.0 7.0 0.00 0.00 0.00 69 1009.8
20260509150038 60 269 1.0 7.0 0.00 0.00 0.00 69 1009.8
20260509144532 60 257 1.0 8.0 0.00 0.00 0.00 68 1009.7
20260509143030 59 269 1.0 9.0 0.00 0.00 0.00 69 1009.7
20260509141532 59 0 1.0 9.0 0.00 0.00 0.00 68 1009.5
20260509140028 58 260 2.0 9.0 0.00 0.00 0.00 68 1009.6
20260509134550 58 270 2.0 4.0 0.00 0.00 0.00 68 1009.7
20260509133032 58 0 1.0 4.0 0.00 0.00 0.00 69 1009.5
20260509131530 57 0 0.0 4.0 0.00 0.00 0.00 70 1009.5
20260509130315 57 0 0.0 3.0 0.00 0.00 0.00 70 1009.3
20260509124535 57 0 0.0 0.0 0.00 0.00 0.00 71 1009.2
20260509123029 57 0 0.0 0.0 0.00 0.00 0.00 72 1009.3
20260509121540 57 0 0.0 1.0 0.00 0.00 0.00 72 1009.2
20260509120029 57 0 0.0 2.0 0.00 0.00 0.00 72 1009.3
20260509114536 57 0 0.0 1.0 0.00 0.00 0.00 73 1008.9
20260509113036 57 0 0.0 0.0 0.00 0.00 0.00 73 1008.6
20260509111531 57 0 0.0 0.0 0.00 0.00 0.00 73 1008.2
20260509110034 57 0 0.0 1.0 0.00 0.00 0.00 73 1008.4
20260509104540 57 0 0.0 1.0 0.00 0.00 0.00 73 1008.3
20260509103028 57 0 0.0 0.0 0.00 0.00 0.00 73 1008.5
20260509101534 57 0 0.0 0.0 0.00 0.00 0.00 73 1008.7
20260509100035 58 0 0.0 0.0 0.00 0.00 0.00 73 1008.6
20260509094536 58 0 0.0 0.0 0.00 0.00 0.00 73 1008.7
20260509093028 58 0 0.0 1.0 0.00 0.00 0.00 73 1008.8
20260509091538 58 0 0.0 2.0 0.00 0.00 0.00 73 1009.1
20260509090029 58 0 0.0 0.0 0.00 0.00 0.00 73 1008.9
20260509084533 58 0 0.0 2.0 0.00 0.00 0.00 73 1009.1
20260509083032 58 0 0.0 2.0 0.00 0.00 0.00 73 1009.0